EZY4L EGCC-EGKK

Flight info

Callsign EZY4L
Flight time N/A
Altitude 19000
Route LISTO2S LISTO L612 HON N859 KIDLI KIDLI1G
Aircraft A20N/M-V/N

Departure

Time 2026-05-06 15:50
Airport Manchester Airport (EGCC)

Arrival

Time N/A
Airport London Gatwick Airport (EGKK)
Time Latitude Longitude Altitude Speed Heading
2026-05-06 15:32 53.36090 -2.26796 236 ft 0 kts 315°
2026-05-06 15:40 53.36086 -2.26789 236 ft 4 kts 316°
2026-05-06 15:40 53.36065 -2.26760 233 ft 4 kts 327°
2026-05-06 15:41 53.36043 -2.26735 236 ft 4 kts 316°
2026-05-06 15:41 53.36039 -2.26743 234 ft 4 kts 253°
2026-05-06 15:41 53.36019 -2.26771 235 ft 4 kts 219°
2026-05-06 15:41 53.36010 -2.26791 235 ft 0 kts 51°
2026-05-06 15:43 53.36010 -2.26790 235 ft 0 kts 51°
2026-05-06 15:44 53.36010 -2.26782 235 ft 0 kts 87°
2026-05-06 15:44 53.36007 -2.26775 234 ft 3 kts 116°
2026-05-06 15:44 53.35972 -2.26730 234 ft 11 kts 158°
2026-05-06 15:45 53.35921 -2.26798 234 ft 14 kts 231°
2026-05-06 15:45 53.35846 -2.26959 236 ft 15 kts 242°
2026-05-06 15:45 53.35838 -2.26985 237 ft 0 kts 243°
2026-05-06 15:46 53.35824 -2.27030 237 ft 9 kts 242°
2026-05-06 15:47 53.35768 -2.27149 239 ft 17 kts 236°
2026-05-06 15:47 53.35677 -2.27337 242 ft 24 kts 232°
2026-05-06 15:47 53.35558 -2.27584 246 ft 30 kts 231°
2026-05-06 15:47 53.35456 -2.27887 250 ft 25 kts 254°
2026-05-06 15:48 53.35331 -2.28121 253 ft 31 kts 223°
2026-05-06 15:48 53.35195 -2.28419 256 ft 33 kts 258°
2026-05-06 15:48 53.35075 -2.28627 259 ft 24 kts 226°
2026-05-06 15:48 53.34946 -2.28859 261 ft 30 kts 227°
2026-05-06 15:49 53.34792 -2.29073 264 ft 18 kts 198°
2026-05-06 15:49 53.34677 -2.28968 266 ft 20 kts 101°
2026-05-06 15:49 53.34720 -2.28846 265 ft 15 kts 49°
2026-05-06 15:49 53.34827 -2.28628 264 ft 54 kts 52°
2026-05-06 15:50 53.35217 -2.27825 253 ft 131 kts 51°
2026-05-06 15:50 53.35874 -2.26460 645 ft 163 kts 51°
2026-05-06 15:50 53.36591 -2.24922 1083 ft 177 kts 57°
2026-05-06 15:50 53.36962 -2.22834 1777 ft 197 kts 94°
2026-05-06 15:51 53.36498 -2.20713 2963 ft 202 kts 127°
2026-05-06 15:51 53.35344 -2.19272 3869 ft 222 kts 160°
2026-05-06 15:51 53.33740 -2.18997 4712 ft 246 kts 183°
2026-05-06 15:51 53.31954 -2.19162 5509 ft 266 kts 178°
2026-05-06 15:52 53.30058 -2.18768 6332 ft 283 kts 166°
2026-05-06 15:52 53.28093 -2.18104 7088 ft 300 kts 173°
2026-05-06 15:52 53.25955 -2.18084 7863 ft 315 kts 187°
2026-05-06 15:52 53.23720 -2.18469 8659 ft 330 kts 186°
2026-05-06 15:53 53.21381 -2.18836 9466 ft 345 kts 186°
2026-05-06 15:53 53.18939 -2.19210 10248 ft 358 kts 186°
2026-05-06 15:53 53.16411 -2.19537 11003 ft 371 kts 182°
2026-05-06 15:53 53.13792 -2.19153 11775 ft 383 kts 169°
2026-05-06 15:54 53.11248 -2.17839 12563 ft 394 kts 158°
2026-05-06 15:54 53.08689 -2.16038 13357 ft 404 kts 158°
2026-05-06 15:54 53.06061 -2.14192 14142 ft 413 kts 158°
2026-05-06 15:54 53.03378 -2.12322 14884 ft 422 kts 158°
2026-05-06 15:55 53.00639 -2.10426 15634 ft 430 kts 159°
2026-05-06 15:55 52.97876 -2.08521 16387 ft 438 kts 159°
2026-05-06 15:55 52.95039 -2.06570 17200 ft 445 kts 159°
2026-05-06 15:55 52.92153 -2.04588 18016 ft 451 kts 159°
2026-05-06 15:56 52.89217 -2.02575 18703 ft 459 kts 159°
2026-05-06 15:56 52.86236 -2.00534 19311 ft 467 kts 159°
2026-05-06 15:56 52.83206 -1.98464 19319 ft 488 kts 159°
2026-05-06 15:56 52.80059 -1.96314 20148 ft 484 kts 159°
2026-05-06 15:57 52.76964 -1.94190 21341 ft 479 kts 159°